DEIMOS

Last updated on Mon Sep 16 2024 00:02:03 GMT+0000 (Coordinated Universal Time)

1 60526U 24149BL 24258.94199568 .00020681 00000+0 96279-3 0 9993 2 60526 97.4421 334.1061 0009514 53.0309 307.1796 15.19912218 4427
UTC large
Height (km)
Speed (km/s)
/
Latitude / Longitude
Inclination (degrees)
Orbital Period (minutes)
Azimuth
Elevation
Range (km)
Doppler Factor

Next 0 passes for location: London (51.5072 / 0.1276)

Sorry there are no passes over London.